FJL851 OPKC-OPQT

Flight info

Callsign FJL851
Flight time N/A
Altitude 36000
Route BADUL DCT NIPET DCT VEGSA
Aircraft A320/M-SDE3FGHIRWY/LB1

Departure

Time 2026-05-06 09:32
Airport Jinnah International Airport (OPKC)

Arrival

Time N/A
Airport Quetta International Airport (OPQT)
Time Latitude Longitude Altitude Speed Heading
2026-05-06 08:40 24.90234 67.16581 101 ft 0 kts 164°
2026-05-06 09:24 24.90237 67.16580 101 ft 2 kts 164°
2026-05-06 09:24 24.90262 67.16572 101 ft 4 kts 164°
2026-05-06 09:24 24.90287 67.16565 100 ft 2 kts 165°
2026-05-06 09:24 24.90308 67.16556 100 ft 4 kts 139°
2026-05-06 09:25 24.90320 67.16534 101 ft 4 kts 86°
2026-05-06 09:25 24.90318 67.16521 101 ft 0 kts 74°
2026-05-06 09:28 24.90323 67.16541 101 ft 5 kts 74°
2026-05-06 09:28 24.90339 67.16602 101 ft 11 kts 74°
2026-05-06 09:28 24.90364 67.16694 101 ft 11 kts 61°
2026-05-06 09:29 24.90445 67.16694 101 ft 14 kts 355°
2026-05-06 09:29 24.90495 67.16771 102 ft 14 kts 75°
2026-05-06 09:29 24.90521 67.16876 102 ft 14 kts 75°
2026-05-06 09:29 24.90546 67.16977 102 ft 14 kts 74°
2026-05-06 09:30 24.90617 67.17005 102 ft 12 kts 346°
2026-05-06 09:30 24.90681 67.16986 106 ft 7 kts 345°
2026-05-06 09:30 24.90714 67.16976 107 ft 3 kts 345°
2026-05-06 09:30 24.90732 67.16970 107 ft 4 kts 333°
2026-05-06 09:31 24.90738 67.16931 107 ft 7 kts 255°
2026-05-06 09:31 24.90714 67.16845 107 ft 28 kts 253°
2026-05-06 09:31 24.90593 67.16375 102 ft 96 kts 255°
2026-05-06 09:31 24.90366 67.15470 104 ft 146 kts 255°
2026-05-06 09:32 24.90082 67.14288 407 ft 167 kts 255°
2026-05-06 09:32 24.89784 67.13021 1032 ft 172 kts 261°
2026-05-06 09:32 24.90075 67.11759 1703 ft 180 kts 308°
2026-05-06 09:32 24.91236 67.11089 2123 ft 208 kts 351°
2026-05-06 09:33 24.92706 67.11523 2357 ft 235 kts 35°
2026-05-06 09:33 24.94052 67.12693 2614 ft 259 kts 32°
2026-05-06 09:33 24.95824 67.13318 2954 ft 279 kts
2026-05-06 09:33 24.97791 67.13263 3602 ft 285 kts 352°
2026-05-06 09:34 24.99737 67.12998 4353 ft 287 kts 350°
2026-05-06 09:34 25.01740 67.12847 5128 ft 290 kts 355°
2026-05-06 09:34 25.03749 67.12778 5978 ft 289 kts 356°
2026-05-06 09:34 25.05747 67.12740 6824 ft 286 kts 357°
2026-05-06 09:35 25.07739 67.12709 7650 ft 285 kts 356°
2026-05-06 09:35 25.09719 67.12678 8476 ft 284 kts 357°
2026-05-06 09:35 25.11687 67.12644 9407 ft 280 kts 358°
2026-05-06 09:35 25.13641 67.12606 10107 ft 284 kts 358°
2026-05-06 09:36 25.15673 67.12561 10324 ft 307 kts 358°
2026-05-06 09:36 25.17881 67.12506 10442 ft 329 kts 358°
2026-05-06 09:36 25.20250 67.12443 10583 ft 350 kts 358°
2026-05-06 09:36 25.22720 67.12378 11023 ft 358 kts 358°
2026-05-06 09:37 25.25229 67.12316 11620 ft 362 kts 358°
2026-05-06 09:37 25.27756 67.12256 12227 ft 365 kts 358°
2026-05-06 09:37 25.30296 67.12197 12834 ft 368 kts 358°
2026-05-06 09:37 25.32871 67.12138 13485 ft 370 kts 358°
2026-05-06 09:38 25.34578 67.12098 13895 ft 371 kts 358°
2026-05-06 09:38 25.38009 67.12013 14621 ft 374 kts 358°
2026-05-06 09:38 25.40624 67.11944 15138 ft 378 kts 358°
2026-05-06 09:38 25.43261 67.11875 15623 ft 381 kts 357°
2026-05-06 09:39 25.45925 67.11807 16144 ft 384 kts 357°
2026-05-06 09:39 25.48607 67.11740 16667 ft 386 kts 357°
2026-05-06 09:39 25.51308 67.11672 17123 ft 390 kts 357°
2026-05-06 09:39 25.54035 67.11606 17602 ft 394 kts 357°
2026-05-06 09:40 25.55858 67.11562 17920 ft 397 kts 357°
2026-05-06 09:40 25.58617 67.11495 18401 ft 399 kts 357°
2026-05-06 09:40 25.64200 67.11360 19259 ft 403 kts 357°
2026-05-06 09:41 25.67018 67.11288 19685 ft 406 kts 357°
2026-05-06 09:41 25.69839 67.11217 20110 ft 408 kts 356°
2026-05-06 09:41 25.72679 67.11146 20530 ft 410 kts 356°
2026-05-06 09:41 25.75544 67.11073 20955 ft 411 kts 356°
2026-05-06 09:42 25.78411 67.10999 21380 ft 413 kts 356°
2026-05-06 09:42 25.81299 67.10923 21799 ft 415 kts 356°
2026-05-06 09:42 25.84195 67.10852 22189 ft 417 kts 356°
2026-05-06 09:42 25.87110 67.10787 22570 ft 419 kts 356°
2026-05-06 09:43 25.90036 67.10722 22956 ft 421 kts 356°
2026-05-06 09:43 25.92986 67.10651 23333 ft 423 kts 355°
2026-05-06 09:43 25.95893 67.10575 23643 ft 425 kts 355°
2026-05-06 09:43 25.98852 67.10495 23959 ft 426 kts 355°
2026-05-06 09:44 26.01820 67.10416 24280 ft 427 kts 355°
2026-05-06 09:44 26.04802 67.10342 24608 ft 429 kts 355°
2026-05-06 09:44 26.07791 67.10272 24913 ft 430 kts 355°
2026-05-06 09:44 26.10781 67.10201 25215 ft 431 kts 355°
2026-05-06 09:45 26.13761 67.10128 25507 ft 432 kts 354°
2026-05-06 09:45 26.16773 67.10054 25789 ft 433 kts 354°
2026-05-06 09:45 26.19785 67.09979 26055 ft 434 kts 354°
2026-05-06 09:45 26.22825 67.09902 26329 ft 435 kts 354°
2026-05-06 09:46 26.25814 67.09827 26598 ft 436 kts 354°
2026-05-06 09:46 26.28857 67.09752 26868 ft 437 kts 354°
2026-05-06 09:46 26.31882 67.09680 27128 ft 438 kts 354°
2026-05-06 09:46 26.34928 67.09607 27484 ft 436 kts 353°
2026-05-06 09:47 26.37957 67.09532 27881 ft 434 kts 353°
2026-05-06 09:47 26.40971 67.09455 28274 ft 432 kts 353°
2026-05-06 09:47 26.43971 67.09378 28681 ft 429 kts 353°
2026-05-06 09:47 26.46951 67.09304 29075 ft 427 kts 353°
2026-05-06 09:48 26.49917 67.09230 29471 ft 425 kts 353°
2026-05-06 09:48 26.52864 67.09157 29850 ft 423 kts 352°
2026-05-06 09:48 26.55800 67.09086 30156 ft 422 kts 352°
2026-05-06 09:48 26.58724 67.09013 30422 ft 421 kts 352°
2026-05-06 09:49 26.61664 67.08938 30682 ft 422 kts 352°
2026-05-06 09:49 26.64595 67.08860 30906 ft 422 kts 352°
2026-05-06 09:49 26.67532 67.08781 31148 ft 422 kts 352°
2026-05-06 09:49 26.70473 67.08705 31404 ft 422 kts 351°
2026-05-06 09:50 26.73413 67.08631 31674 ft 422 kts 351°
2026-05-06 09:50 26.76353 67.08558 31950 ft 422 kts 351°
2026-05-06 09:50 26.79244 67.08482 32220 ft 422 kts 351°
2026-05-06 09:50 26.82182 67.08405 32484 ft 422 kts 351°
2026-05-06 09:51 26.85114 67.08331 32740 ft 422 kts 351°
2026-05-06 09:51 26.88056 67.08260 32982 ft 422 kts 351°
2026-05-06 09:51 26.90992 67.08191 33181 ft 423 kts 351°
2026-05-06 09:51 26.93938 67.08120 33439 ft 423 kts 351°
2026-05-06 09:52 26.96876 67.08050 33725 ft 423 kts 350°
2026-05-06 09:52 26.99801 67.07978 33966 ft 422 kts 350°
2026-05-06 09:52 27.02742 67.07900 34225 ft 422 kts 350°
2026-05-06 09:52 27.05677 67.07820 34484 ft 421 kts 350°
2026-05-06 09:53 27.08603 67.07741 34707 ft 421 kts 350°
2026-05-06 09:53 27.11541 67.07667 34926 ft 421 kts 351°
2026-05-06 09:53 27.14464 67.07593 35133 ft 421 kts 351°
2026-05-06 09:53 27.17354 67.07519 35363 ft 420 kts 351°
2026-05-06 09:54 27.20276 67.07448 35551 ft 421 kts 351°
2026-05-06 09:54 27.23199 67.07374 35726 ft 419 kts 350°
2026-05-06 09:54 27.29074 67.07215 35819 ft 424 kts 351°
2026-05-06 09:55 27.34969 67.07082 35794 ft 423 kts 351°
2026-05-06 09:55 27.40862 67.06941 35800 ft 421 kts 351°
2026-05-06 09:56 27.46696 67.06762 35799 ft 422 kts 350°
2026-05-06 09:56 27.52552 67.06478 35803 ft 421 kts 349°
2026-05-06 09:57 27.58412 67.06176 35822 ft 421 kts 349°
2026-05-06 09:57 27.64272 67.05899 35825 ft 421 kts 349°
2026-05-06 09:58 27.70126 67.05631 35815 ft 420 kts 349°
2026-05-06 09:58 27.75938 67.05366 35813 ft 420 kts 349°
2026-05-06 09:59 27.81789 67.05106 35814 ft 420 kts 349°
2026-05-06 09:59 27.87639 67.04838 35831 ft 420 kts 349°
2026-05-06 10:00 27.93470 67.04565 35827 ft 419 kts 349°
2026-05-06 10:00 27.99298 67.04294 35822 ft 419 kts 349°
2026-05-06 10:01 28.05108 67.04028 35816 ft 418 kts 349°
2026-05-06 10:01 28.10916 67.03757 35832 ft 418 kts 349°
2026-05-06 10:02 28.16713 67.03486 35826 ft 416 kts 349°
2026-05-06 10:02 28.22474 67.03219 35826 ft 417 kts 349°
2026-05-06 10:03 28.28275 67.02959 35824 ft 417 kts 349°
2026-05-06 10:03 28.34038 67.02698 35822 ft 416 kts 350°
2026-05-06 10:04 28.39833 67.02424 35839 ft 416 kts 349°
2026-05-06 10:04 28.45612 67.02149 35861 ft 416 kts 349°
2026-05-06 10:05 28.51355 67.01882 35861 ft 414 kts 349°
2026-05-06 10:05 28.57074 67.01612 35857 ft 414 kts 349°
2026-05-06 10:06 28.62802 67.01340 35865 ft 413 kts 349°
2026-05-06 10:06 28.68563 67.01075 35873 ft 413 kts 349°
2026-05-06 10:07 28.74311 67.00809 35885 ft 414 kts 349°
2026-05-06 10:07 28.80039 67.00534 35884 ft 414 kts 349°
2026-05-06 10:08 28.85806 67.00271 35893 ft 414 kts 349°
2026-05-06 10:08 28.91566 67.00002 35907 ft 413 kts 349°
2026-05-06 10:09 28.97318 66.99724 35908 ft 414 kts 349°
2026-05-06 10:09 29.03058 66.99445 35899 ft 413 kts 349°
2026-05-06 10:10 29.08807 66.99179 35892 ft 413 kts 349°
2026-05-06 10:10 29.14551 66.98913 35891 ft 413 kts 350°
2026-05-06 10:11 29.20291 66.98642 35888 ft 412 kts 349°
2026-05-06 10:11 29.26039 66.98367 35892 ft 413 kts 349°
2026-05-06 10:12 29.31753 66.98096 35888 ft 414 kts 349°
2026-05-06 10:12 29.37508 66.97826 35907 ft 412 kts 349°
2026-05-06 10:13 29.43229 66.97554 35916 ft 411 kts 349°
2026-05-06 10:13 29.48939 66.97283 35929 ft 411 kts 349°
2026-05-06 10:14 29.54627 66.97013 35904 ft 411 kts 349°
2026-05-06 10:14 29.60327 66.96740 35889 ft 411 kts 349°